Location: Unspecified
(31.7178°N, 0.0000°E)
Time: 03:09:06
(UTC+00:00)

Orbcomm-X - Visible Passes

Search period start: 04 April 2026 00:00
Search period end: 14 April 2026 00:00
Orbit: 752 x 762 km, 98.4° (Epoch: 29 March)

Date Brightness Start Highest point End Pass type
(mag) Time Alt. Az. Time Alt. Az. Time Alt. Az.
5 Apr ? 21:44:33 13° N 21:44:33 13° N 21:45:03 10° N visible
6 Apr ? 21:04:46 12° NNE 21:04:46 12° NNE 21:05:11 10° NNE visible
7 Apr ? 22:04:59 12° NNW 22:04:59 12° NNW 22:05:25 10° NNW visible
8 Apr ? 21:25:11 15° N 21:25:11 15° N 21:26:00 10° N visible
9 Apr ? 20:45:24 11° NNE 20:45:24 11° NNE 20:45:35 10° NNE visible
9 Apr ? 22:25:24 11° NNW 22:25:24 11° NNW 22:25:33 10° NNW visible
10 Apr ? 21:45:37 16° N 21:45:37 16° N 21:46:33 10° N visible
11 Apr ? 21:05:50 14° NNE 21:05:50 14° NNE 21:06:44 10° NNE visible
12 Apr ? 22:06:02 15° NNW 22:06:02 15° NNW 22:06:54 10° NNW visible
13 Apr ? 21:26:15 18° N 21:26:15 18° N 21:27:31 10° N visible
